Location: Huntsville
(41.2590°N, 111.7678°W)
Time: 06:06:25
(UTC+00:00)

Courier 1B - Visible Passes

Search period start: 25 September 2022 00:00
Search period end: 05 October 2022 00:00
Orbit: 962 x 1209 km, 28.3° (Epoch: 24 September)

Date Brightness Start Highest point End Pass type
(mag) Time Alt. Az. Time Alt. Az. Time Alt. Az.
25 Sep 8.8 02:19:21 10° SW 02:24:33 25° S 02:28:39 14° SE visible
25 Sep 9.3 04:12:50 10° WSW 04:15:32 19° SW 04:15:32 19° SW visible
26 Sep 8.8 03:19:04 10° WSW 03:24:08 24° S 03:25:03 23° S visible
27 Sep 8.9 02:25:21 10° WSW 02:30:37 26° S 02:34:35 15° SE visible
27 Sep 9.5 04:19:37 10° WSW 04:21:28 15° SW 04:21:28 15° SW visible
28 Sep 8.9 01:31:40 10° SW 01:37:04 26° S 01:42:19 10° SE visible
28 Sep 9.0 03:25:34 10° WSW 03:30:09 20° SSW 03:31:00 20° S visible
29 Sep 9.1 02:31:38 10° WSW 02:36:38 23° S 02:40:33 13° SSE visible
30 Sep 9.1 01:37:46 10° WSW 01:43:06 25° S 01:48:17 10° SE visible
30 Sep 9.4 03:32:36 10° SW 03:36:06 15° SSW 03:37:02 15° S visible
01 Oct 9.4 02:38:16 10° WSW 02:42:37 18° SSW 02:46:40 11° SSE visible
02 Oct 9.3 01:44:09 10° WSW 01:49:06 22° SSW 01:53:54 10° SSE visible
03 Oct 9.7 02:45:46 10° SW 02:48:31 13° SSW 02:51:12 10° S visible
04 Oct 9.7 01:51:00 10° WSW 01:55:01 16° SSW 01:58:56 10° SSE visible
